Time,TemperatureF,DewpointF,PressureIn,WindDirection,WindDirectionDegrees,WindSpeedMPH,WindSpeedGustMPH,Humidity,HourlyPrecipIn,Conditions,Clouds,dailyrainin,SolarRadiationWatts/m^2,SoftwareType,DateUTC
2013-06-10 00:02:00,59.0,49.0,30.05,WSW,256,7.0,16.0,69,-99.99,,,0.00,0.000000,,2013-06-10 07:02:00,
2013-06-10 00:12:00,59.0,49.0,30.05,WSW,256,7.0,16.0,69,-99.99,,,0.00,0.000000,,2013-06-10 07:12:00,
2013-06-10 00:32:00,57.0,48.0,30.05,West,265,8.0,18.0,72,-99.99,,,0.00,0.000000,,2013-06-10 07:32:00,
2013-06-10 00:42:00,57.0,48.0,30.05,West,265,8.0,18.0,72,-99.99,,,0.00,0.000000,,2013-06-10 07:42:00,
2013-06-10 00:52:00,57.0,48.0,30.05,West,265,8.0,18.0,72,-99.99,,,0.00,0.000000,,2013-06-10 07:52:00,
2013-06-10 01:02:00,57.0,48.0,30.05,West,265,8.0,18.0,72,-99.99,,,0.00,0.000000,,2013-06-10 08:02:00,
2013-06-10 01:12:00,57.0,48.0,30.05,West,265,8.0,18.0,72,-99.99,,,0.00,0.000000,,2013-06-10 08:12:00,
2013-06-10 01:32:00,55.0,47.0,30.05,West,267,10.0,23.0,74,-99.99,,,0.00,0.000000,,2013-06-10 08:32:00,
2013-06-10 01:42:00,55.0,47.0,30.05,West,267,10.0,23.0,74,-99.99,,,0.00,0.000000,,2013-06-10 08:42:00,
2013-06-10 01:52:00,55.0,47.0,30.05,West,267,10.0,23.0,74,-99.99,,,0.00,0.000000,,2013-06-10 08:52:00,
2013-06-10 02:02:00,55.0,47.0,30.05,West,267,10.0,23.0,74,-99.99,,,0.00,0.000000,,2013-06-10 09:02:00,
2013-06-10 02:12:00,55.0,47.0,30.05,West,267,10.0,23.0,74,-99.99,,,0.00,0.000000,,2013-06-10 09:12:00,
2013-06-10 02:42:00,54.0,47.0,30.05,West,267,10.0,18.0,77,-99.99,,,0.00,0.000000,,2013-06-10 09:42:00,
2013-06-10 02:53:00,54.0,47.0,30.05,West,267,10.0,18.0,77,-99.99,,,0.00,0.000000,,2013-06-10 09:53:00,
2013-06-10 03:02:00,54.0,47.0,30.05,West,267,10.0,18.0,77,-99.99,,,0.00,0.000000,,2013-06-10 10:02:00,
2013-06-10 03:12:00,54.0,47.0,30.05,West,267,10.0,18.0,77,-99.99,,,0.00,0.000000,,2013-06-10 10:12:00,
2013-06-10 03:33:00,53.0,47.0,30.05,West,270,9.0,18.0,80,-99.99,,,0.00,0.000000,,2013-06-10 10:33:00,
2013-06-10 03:42:00,53.0,47.0,30.05,West,270,9.0,18.0,80,-99.99,,,0.00,0.000000,,2013-06-10 10:42:00,
2013-06-10 03:52:00,53.0,47.0,30.05,West,270,9.0,18.0,80,-99.99,,,0.00,0.000000,,2013-06-10 10:52:00,
2013-06-10 04:02:00,53.0,47.0,30.05,West,270,9.0,18.0,80,-99.99,,,0.00,0.000000,,2013-06-10 11:02:00,
2013-06-10 04:12:00,53.0,47.0,30.05,West,270,9.0,18.0,80,-99.99,,,0.00,0.000000,,2013-06-10 11:12:00,
2013-06-10 04:32:00,52.0,47.0,30.05,West,266,9.0,18.0,80,-99.99,,,0.00,0.000000,,2013-06-10 11:32:00,
2013-06-10 04:42:00,52.0,47.0,30.05,West,266,9.0,18.0,80,-99.99,,,0.00,0.000000,,2013-06-10 11:42:00,
2013-06-10 04:52:00,52.0,47.0,30.05,West,266,9.0,18.0,80,-99.99,,,0.00,0.000000,,2013-06-10 11:52:00,
2013-06-10 05:02:00,52.0,47.0,30.05,West,266,9.0,18.0,80,-99.99,,,0.00,0.000000,,2013-06-10 12:02:00,
2013-06-10 05:12:00,52.0,47.0,30.05,West,266,9.0,18.0,80,-99.99,,,0.00,0.000000,,2013-06-10 12:12:00,
2013-06-10 05:42:00,52.0,46.0,30.04,WSW,247,6.0,14.0,80,-99.99,,,0.00,1.510000,,2013-06-10 12:42:00,
2013-06-10 05:52:00,52.0,46.0,30.04,WSW,247,6.0,14.0,80,-99.99,,,0.00,1.510000,,2013-06-10 12:52:00,
2013-06-10 06:02:00,52.0,46.0,30.04,WSW,247,6.0,14.0,80,-99.99,,,0.00,1.510000,,2013-06-10 13:02:00,
2013-06-10 06:11:00,52.0,46.0,30.04,WSW,247,6.0,14.0,80,-99.99,,,0.00,1.510000,,2013-06-10 13:11:00,
2013-06-10 06:42:00,52.0,47.0,30.04,WSW,245,5.0,15.0,81,-99.99,,,0.00,25.920000,,2013-06-10 13:42:00,
2013-06-10 06:52:00,52.0,47.0,30.04,WSW,245,5.0,15.0,81,-99.99,,,0.00,25.920000,,2013-06-10 13:52:00,
2013-06-10 07:02:00,52.0,47.0,30.04,WSW,245,5.0,15.0,81,-99.99,,,0.00,25.920000,,2013-06-10 14:02:00,
2013-06-10 07:12:00,52.0,47.0,30.04,WSW,245,5.0,15.0,81,-99.99,,,0.00,25.920000,,2013-06-10 14:12:00,
2013-06-10 07:42:00,53.0,47.0,30.04,West,259,7.0,15.0,79,-99.99,,,0.00,242.779999,,2013-06-10 14:42:00,
2013-06-10 07:52:00,53.0,47.0,30.04,West,259,7.0,15.0,79,-99.99,,,0.00,242.779999,,2013-06-10 14:52:00,
2013-06-10 08:02:00,53.0,47.0,30.04,West,259,7.0,15.0,79,-99.99,,,0.00,242.779999,,2013-06-10 15:02:00,
2013-06-10 08:12:00,53.0,47.0,30.04,West,259,7.0,15.0,79,-99.99,,,0.00,242.779999,,2013-06-10 15:12:00,
2013-06-10 08:43:00,55.0,47.0,30.03,WSW,250,6.0,14.0,75,-99.99,,,0.00,250.110001,,2013-06-10 15:43:00,
2013-06-10 08:53:00,55.0,47.0,30.03,WSW,250,6.0,14.0,75,-99.99,,,0.00,250.110001,,2013-06-10 15:53:00,
2013-06-10 09:03:00,55.0,47.0,30.03,WSW,250,6.0,14.0,75,-99.99,,,0.00,250.110001,,2013-06-10 16:03:00,
2013-06-10 09:12:00,55.0,47.0,30.03,WSW,250,6.0,14.0,75,-99.99,,,0.00,250.110001,,2013-06-10 16:12:00,
2013-06-10 09:42:00,57.0,48.0,30.03,WSW,249,6.0,14.0,71,-99.99,,,0.00,576.570007,,2013-06-10 16:42:00,
2013-06-10 09:53:00,57.0,48.0,30.03,WSW,249,6.0,14.0,71,-99.99,,,0.00,576.570007,,2013-06-10 16:53:00,
2013-06-10 10:03:00,57.0,48.0,30.03,WSW,249,6.0,14.0,71,-99.99,,,0.00,576.570007,,2013-06-10 17:03:00,
2013-06-10 10:14:00,57.0,48.0,30.03,WSW,249,6.0,14.0,71,-99.99,,,0.00,576.570007,,2013-06-10 17:14:00,
2013-06-10 10:38:00,58.0,48.0,30.02,WSW,255,8.0,15.0,69,-99.99,,,0.00,728.580017,,2013-06-10 17:38:00,
2013-06-10 10:48:00,58.0,48.0,30.02,WSW,255,8.0,15.0,69,-99.99,,,0.00,728.580017,,2013-06-10 17:48:00,
2013-06-10 10:58:00,58.0,48.0,30.02,WSW,255,8.0,15.0,69,-99.99,,,0.00,728.580017,,2013-06-10 17:58:00,
2013-06-10 11:07:00,58.0,48.0,30.02,WSW,255,8.0,15.0,69,-99.99,,,0.00,728.580017,,2013-06-10 18:07:00,
2013-06-10 11:14:00,58.0,48.0,30.02,WSW,255,8.0,15.0,69,-99.99,,,0.00,728.580017,,2013-06-10 18:14:00,
2013-06-10 11:34:00,60.0,47.0,30.00,WSW,253,9.0,19.0,64,-99.99,,,0.00,836.780029,,2013-06-10 18:34:00,
2013-06-10 11:48:00,60.0,47.0,30.00,WSW,253,9.0,19.0,64,-99.99,,,0.00,836.780029,,2013-06-10 18:48:00,
2013-06-10 11:55:00,60.0,47.0,30.00,WSW,253,9.0,19.0,64,-99.99,,,0.00,836.780029,,2013-06-10 18:55:00,
2013-06-10 12:03:00,60.0,47.0,30.00,WSW,253,9.0,19.0,64,-99.99,,,0.00,836.780029,,2013-06-10 19:03:00,
2013-06-10 12:12:00,60.0,47.0,30.00,WSW,253,9.0,19.0,64,-99.99,,,0.00,836.780029,,2013-06-10 19:12:00,
2013-06-10 12:42:00,61.0,48.0,30.00,WSW,254,10.0,20.0,62,-99.99,,,0.00,906.520020,,2013-06-10 19:42:00,
2013-06-10 12:53:00,61.0,48.0,30.00,WSW,254,10.0,20.0,62,-99.99,,,0.00,906.520020,,2013-06-10 19:53:00,
2013-06-10 13:02:00,61.0,48.0,30.00,WSW,254,10.0,20.0,62,-99.99,,,0.00,906.520020,,2013-06-10 20:02:00,
2013-06-10 13:12:00,61.0,48.0,30.00,WSW,254,10.0,20.0,62,-99.99,,,0.00,906.520020,,2013-06-10 20:12:00,
2013-06-10 13:32:00,62.0,49.0,29.98,WSW,253,9.0,18.0,61,-99.99,,,0.00,934.409973,,2013-06-10 20:32:00,
2013-06-10 13:43:00,62.0,49.0,29.98,WSW,253,9.0,18.0,61,-99.99,,,0.00,934.409973,,2013-06-10 20:43:00,
2013-06-10 13:52:00,62.0,49.0,29.98,WSW,253,9.0,18.0,61,-99.99,,,0.00,934.409973,,2013-06-10 20:52:00,
2013-06-10 14:02:00,62.0,49.0,29.98,WSW,253,9.0,18.0,61,-99.99,,,0.00,934.409973,,2013-06-10 21:02:00,
2013-06-10 14:12:00,62.0,49.0,29.98,WSW,253,9.0,18.0,61,-99.99,,,0.00,934.409973,,2013-06-10 21:12:00,
2013-06-10 14:33:00,64.0,49.0,29.97,West,266,11.0,19.0,57,-99.99,,,0.00,906.520020,,2013-06-10 21:33:00,
2013-06-10 14:43:00,64.0,49.0,29.97,West,266,11.0,19.0,57,-99.99,,,0.00,906.520020,,2013-06-10 21:43:00,
2013-06-10 14:53:00,64.0,49.0,29.97,West,266,11.0,19.0,57,-99.99,,,0.00,906.520020,,2013-06-10 21:53:00,
2013-06-10 15:03:00,64.0,49.0,29.97,West,266,11.0,19.0,57,-99.99,,,0.00,906.520020,,2013-06-10 22:03:00,
2013-06-10 15:12:00,64.0,49.0,29.97,West,266,11.0,19.0,57,-99.99,,,0.00,906.520020,,2013-06-10 22:12:00,
2013-06-10 15:42:00,66.0,49.0,29.95,West,265,12.0,22.0,54,-99.99,,,0.00,834.460022,,2013-06-10 22:42:00,
2013-06-10 15:52:00,66.0,49.0,29.95,West,265,12.0,22.0,54,-99.99,,,0.00,834.460022,,2013-06-10 22:52:00,
2013-06-10 16:02:00,66.0,49.0,29.95,West,265,12.0,22.0,54,-99.99,,,0.00,834.460022,,2013-06-10 23:02:00,
2013-06-10 16:12:00,66.0,49.0,29.95,West,265,12.0,22.0,54,-99.99,,,0.00,834.460022,,2013-06-10 23:12:00,
2013-06-10 16:32:00,67.0,49.0,29.95,West,266,11.0,20.0,52,-99.99,,,0.00,721.030029,,2013-06-10 23:32:00,
2013-06-10 16:42:00,67.0,49.0,29.95,West,266,11.0,20.0,52,-99.99,,,0.00,721.030029,,2013-06-10 23:42:00,
2013-06-10 16:52:00,67.0,49.0,29.95,West,266,11.0,20.0,52,-99.99,,,0.00,721.030029,,2013-06-10 23:52:00,
2013-06-10 17:02:00,67.0,49.0,29.95,West,266,11.0,20.0,52,-99.99,,,0.00,721.030029,,2013-06-11 00:02:00,
2013-06-10 17:12:00,67.0,49.0,29.95,West,266,11.0,20.0,52,-99.99,,,0.00,721.030029,,2013-06-11 00:12:00,
2013-06-10 17:42:00,68.0,48.0,29.94,West,260,9.0,18.0,48,-99.99,,,0.00,582.260010,,2013-06-11 00:42:00,
2013-06-10 17:52:00,68.0,48.0,29.94,West,260,9.0,18.0,48,-99.99,,,0.00,582.260010,,2013-06-11 00:52:00,
2013-06-10 18:02:00,68.0,48.0,29.94,West,260,9.0,18.0,48,-99.99,,,0.00,582.260010,,2013-06-11 01:02:00,
2013-06-10 18:12:00,68.0,48.0,29.94,West,260,9.0,18.0,48,-99.99,,,0.00,582.260010,,2013-06-11 01:12:00,
2013-06-10 18:42:00,68.0,46.0,29.94,WSW,256,8.0,16.0,45,-99.99,,,0.00,417.929993,,2013-06-11 01:42:00,
2013-06-10 18:52:00,68.0,46.0,29.94,WSW,256,8.0,16.0,45,-99.99,,,0.00,417.929993,,2013-06-11 01:52:00,
2013-06-10 19:02:00,68.0,46.0,29.94,WSW,256,8.0,16.0,45,-99.99,,,0.00,417.929993,,2013-06-11 02:02:00,
2013-06-10 19:12:00,68.0,46.0,-100.00,WSW,256,8.0,16.0,45,-99.99,,,0.00,417.929993,,2013-06-11 02:12:00,
2013-06-10 19:32:00,67.0,46.0,29.93,WSW,257,8.0,18.0,46,-99.99,,,0.00,237.320007,,2013-06-11 02:32:00,
2013-06-10 19:42:00,67.0,46.0,29.93,WSW,257,8.0,18.0,46,-99.99,,,0.00,237.320007,,2013-06-11 02:42:00,
2013-06-10 19:52:00,67.0,46.0,29.93,WSW,257,8.0,18.0,46,-99.99,,,0.00,237.320007,,2013-06-11 02:52:00,
2013-06-10 20:02:00,67.0,46.0,29.93,WSW,257,8.0,18.0,46,-99.99,,,0.00,237.320007,,2013-06-11 03:02:00,
2013-06-10 20:12:00,67.0,46.0,29.93,WSW,257,8.0,18.0,46,-99.99,,,0.00,237.320007,,2013-06-11 03:12:00,
2013-06-10 20:43:00,65.0,47.0,29.94,West,270,8.0,18.0,52,-99.99,,,0.00,34.750000,,2013-06-11 03:43:00,
2013-06-10 20:53:00,65.0,47.0,29.94,West,270,8.0,18.0,52,-99.99,,,0.00,34.750000,,2013-06-11 03:53:00,
2013-06-10 21:02:00,65.0,47.0,29.94,West,270,8.0,18.0,52,-99.99,,,0.00,34.750000,,2013-06-11 04:02:00,
2013-06-10 21:12:00,65.0,47.0,29.94,West,270,8.0,18.0,52,-99.99,,,0.00,34.750000,,2013-06-11 04:12:00,
2013-06-10 21:33:00,63.0,47.0,29.96,West,259,7.0,14.0,56,-99.99,,,0.00,1.510000,,2013-06-11 04:33:00,
2013-06-10 21:42:00,63.0,47.0,29.96,West,259,7.0,14.0,56,-99.99,,,0.00,1.510000,,2013-06-11 04:42:00,
2013-06-10 21:53:00,63.0,47.0,29.96,West,259,7.0,14.0,56,-99.99,,,0.00,1.510000,,2013-06-11 04:53:00,
2013-06-10 22:02:00,63.0,47.0,29.96,West,259,7.0,14.0,56,-99.99,,,0.00,1.510000,,2013-06-11 05:02:00,
2013-06-10 22:12:00,63.0,47.0,29.96,West,259,7.0,14.0,56,-99.99,,,0.00,1.510000,,2013-06-11 05:12:00,
2013-06-10 22:32:00,61.0,47.0,29.99,West,273,9.0,15.0,61,-99.99,,,-99.99,0.000000,,2013-06-11 05:32:00,
2013-06-10 22:42:00,61.0,47.0,29.99,West,273,9.0,15.0,61,-99.99,,,-99.99,0.000000,,2013-06-11 05:42:00,
2013-06-10 22:52:00,61.0,47.0,29.99,West,273,9.0,15.0,61,-99.99,,,-99.99,0.000000,,2013-06-11 05:52:00,
2013-06-10 23:02:00,61.0,47.0,29.99,West,273,9.0,15.0,61,-99.99,,,-99.99,0.000000,,2013-06-11 06:02:00,
2013-06-10 23:12:00,61.0,47.0,29.99,West,273,9.0,15.0,61,-99.99,,,-99.99,0.000000,,2013-06-11 06:12:00,
2013-06-10 23:32:00,58.0,47.0,30.00,West,276,8.0,15.0,66,-99.99,,,0.00,0.000000,,2013-06-11 06:32:00,
2013-06-10 23:42:00,58.0,47.0,30.00,West,276,8.0,15.0,66,-99.99,,,0.00,0.000000,,2013-06-11 06:42:00,
2013-06-10 23:52:00,58.0,47.0,30.00,West,276,8.0,15.0,66,-99.99,,,0.00,0.000000,,2013-06-11 06:52:00,